[[{"header":{"parameterUnit":"m.s-1","parameterCategory":2,"la1":30.2991,"la2":30.254,"lo1":-89.0895,"lo2":-89.0444,"dy":0.0017,"dx":0.0017,"nx":28,"ny":28,"refTime":"2024-09-03T09:00:00:Z","depth":"0","parameterNumber":2,"parameterNumberName":"U-component_of_CURRENTS"},"data":[0,0,0,0,0,0,0,0,0,0,0,0,0,0,0,0,0,0,0,0,0,0,0,0,0,0,0,0,0,0,0,0,0,0,0,0,0,0,0,0,0,0,0,0,0,0,0,0,0,0,0,0,0,0,0,0,0,0,-0.1862,-0.1863,0,-0.1867,-0.1866,-0.1866,-0.1829,-0.1828,-0.1827,-0.1827,-0.1773,-0.1773,-0.1772,0,0,0,0,0,0,0,0,0,0,0,0,0,-0.18,-0.1801,-0.1862,-0.1863,-0.1863,-0.1867,-0.1866,-0.1866,-0.1829,-0.1828,-0.1827,-0.1826,-0.1774,-0.1773,-0.1772,0,0,0,0,0,0,0,0,0,0,0,0,0,-0.1814,-0.1801,-0.1862,-0.1848,-0.1847,-0.1867,-0.1866,-0.1866,-0.1829,-0.1828,-0.1827,-0.1826,-0.1774,-0.1773,-0.1772,-0.1786,0,0,-0.1768,-0.1768,0,0,0,0,0,0,0,0,-0.1814,-0.1816,-0.1849,-0.1849,-0.1848,-0.1849,-0.1825,-0.1838,-0.1829,-0.1832,-0.1827,-0.1825,-0.1797,-0.1794,-0.1792,-0.1783,-0.1781,-0.1768,-0.1767,-0.1767,-0.1766,0,0,0,0,0,0,0,-0.1813,-0.1816,-0.186,-0.185,-0.1849,-0.1834,-0.1834,-0.1827,-0.1816,-0.1831,-0.183,-0.1836,-0.1795,-0.1793,-0.1791,-0.178,-0.1768,-0.1767,-0.1766,-0.1766,-0.1776,-0.1777,0,0,0,0,0,0,-0.1822,-0.1815,-0.186,-0.1861,-0.1832,-0.1836,-0.1837,-0.1847,-0.1817,-0.1813,-0.1837,-0.1835,-0.1796,-0.1792,-0.1788,-0.1802,-0.1767,-0.1766,-0.1765,-0.1775,-0.1776,-0.1777,0,0,0,0,0,0,-0.1821,-0.1826,-0.186,-0.184,-0.1844,-0.1839,-0.185,-0.1848,-0.1845,-0.1823,-0.1817,-0.1838,-0.1795,-0.179,-0.1788,-0.18,-0.1765,-0.1764,-0.1774,-0.1775,-0.1777,-0.183,0,0,0,0,0,0,-0.1819,-0.1826,-0.1834,-0.1842,-0.1846,-0.1881,-0.1852,-0.1849,-0.1853,-0.1849,-0.1822,-0.1816,-0.1794,-0.179,-0.1787,-0.1797,-0.1763,-0.1773,-0.1774,-0.1776,-0.1827,-0.1833,-0.1838,0,0,0,0,0,-0.1817,-0.1837,-0.1835,-0.184,-0.1858,-0.1882,-0.1883,-0.1872,-0.1854,-0.1863,-0.1842,-0.1816,-0.1799,-0.179,-0.1786,-0.1797,-0.1772,-0.1774,-0.1776,-0.1825,-0.1832,-0.1838,0,0,0,0,0,0,-0.1815,-0.1836,-0.1833,-0.1858,-0.1873,-0.1877,-0.1886,-0.1878,-0.187,-0.1861,-0.1831,-0.1825,-0.1826,-0.1809,-0.18,-0.1806,-0.178,-0.1782,-0.1819,-0.1826,-0.1831,-0.1827,-0.1762,0,0,0,0,0,-0.1821,-0.1838,-0.1857,-0.1876,-0.1886,-0.1886,-0.1892,-0.1888,-0.1885,-0.1879,-0.1862,-0.1843,-0.1834,-0.1827,-0.1817,-0.1823,-0.1821,-0.1827,-0.1833,-0.1838,-0.1832,-0.1833,-0.1838,-0.1784,-0.1784,-0.1784,0,0,-0.1825,-0.184,-0.1848,-0.1876,-0.1883,-0.1908,-0.1886,-0.1903,-0.1913,-0.1876,-0.1879,-0.1863,-0.1841,-0.1846,-0.1845,-0.1831,-0.1862,-0.184,-0.1845,-0.1836,-0.1835,-0.1841,-0.1845,-0.1786,-0.1785,-0.1785,0,0,-0.1849,-0.1857,-0.1882,-0.1898,-0.192,-0.1923,-0.1932,-0.1941,-0.1934,-0.1945,-0.1916,-0.1908,-0.19,-0.1883,-0.1873,-0.1905,-0.1893,-0.1906,-0.1928,-0.1929,-0.1933,-0.1936,-0.1984,-0.1991,-0.1907,-0.1907,-0.1907,0,-0.1852,-0.1883,-0.1893,-0.1923,-0.1935,-0.1934,-0.196,-0.1963,-0.1968,-0.1966,-0.1953,-0.1937,-0.1916,-0.1914,-0.1921,-0.1916,-0.1931,-0.1903,-0.1936,-0.1939,-0.1941,-0.1989,-0.1996,-0.191,-0.1909,-0.1909,-0.1909,0,-0.1896,-0.1919,-0.1936,-0.197,-0.1988,-0.2009,-0.202,-0.2029,-0.2021,-0.2019,-0.2017,-0.1992,-0.1979,-0.1975,-0.1955,-0.1964,-0.1977,-0.1945,-0.1918,-0.195,-0.1999,-0.2005,-0.1914,-0.1913,-0.1912,-0.1911,0,0,-0.19,-0.1954,-0.1958,-0.1977,-0.2008,-0.2028,-0.2051,-0.2068,-0.2086,-0.2074,-0.209,-0.2061,-0.2042,-0.2029,-0.2004,-0.1999,-0.2041,-0.1982,-0.198,-0.2029,-0.2085,-0.2159,-0.2173,-0.2014,-0.2014,-0.2015,-0.2128,0,-0.1925,-0.1979,-0.2001,-0.2045,-0.2069,-0.208,-0.2107,-0.2121,-0.2128,-0.2148,-0.2111,-0.2117,-0.2065,-0.2065,-0.2049,-0.2042,-0.2053,-0.2016,-0.2046,-0.2047,-0.2108,-0.2181,-0.22,-0.2306,-0.2134,-0.2135,-0.2136,0,-0.1951,-0.1983,-0.2026,-0.2077,-0.2091,-0.2115,-0.2151,-0.2176,-0.2199,-0.2206,-0.2196,-0.2185,-0.2174,-0.2125,-0.2123,-0.2104,-0.2097,-0.2089,-0.2093,-0.214,-0.2132,-0.2237,-0.2324,-0.2335,-0.2145,-0.2144,-0.2144,0,-0.1932,-0.1996,-0.2024,-0.204,-0.2102,-0.2117,-0.2143,-0.218,-0.2215,-0.2236,-0.2276,-0.2251,-0.2262,-0.2228,-0.2213,-0.2172,-0.2233,-0.2173,-0.2239,-0.2246,-0.2256,-0.2263,-0.235,-0.2174,-0.2174,-0.2173,-0.2173,0,-0.1937,-0.1963,-0.2014,-0.203,-0.2074,-0.211,-0.2159,-0.2188,-0.2245,-0.231,-0.2294,-0.2346,-0.2285,-0.2314,-0.2267,-0.2304,-0.2279,-0.2269,-0.228,-0.2283,-0.229,-0.2292,-0.2268,-0.2178,-0.2177,-0.2176,-0.2175,0,-0.1911,-0.1946,-0.1986,-0.2044,-0.2064,-0.2088,-0.2172,-0.2221,-0.2272,-0.2361,-0.2376,-0.2432,-0.2481,-0.2455,-0.2442,-0.2407,-0.241,-0.2421,-0.246,-0.2473,-0.2531,-0.2509,-0.2548,-0.2505,-0.2517,-0.2519,-0.2522,0,-0.1905,-0.1916,-0.1982,-0.2011,-0.2034,-0.2083,-0.2134,-0.2209,-0.2282,-0.2422,-0.2479,-0.2562,-0.2645,-0.2687,-0.2646,-0.264,-0.2536,-0.2633,-0.2538,-0.2572,-0.2554,-0.2479,-0.2431,-0.2591,-0.2593,-0.2595,-0.2597,0,-0.1879,-0.1895,-0.1924,-0.1984,-0.2034,-0.2111,-0.2192,-0.2257,-0.2376,-0.2485,-0.2646,-0.2727,-0.282,-0.2862,-0.2858,-0.2801,-0.2622,-0.2677,-0.2679,-0.2609,-0.2562,-0.2514,-0.251,-0.2615,-0.2613,-0.2612,-0.2611,-0.261,-0.1844,-0.1856,-0.189,-0.1945,-0.2017,-0.2112,-0.2133,-0.228,-0.2409,-0.2564,-0.2723,-0.2877,-0.2988,-0.3007,-0.2966,-0.2914,-0.2795,-0.2822,-0.2796,-0.2721,-0.2665,-0.2741,-0.287,-0.2869,-0.2869,-0.2869,-0.2868,0,-0.179,-0.1809,-0.1856,-0.1915,-0.1968,-0.203,-0.2151,-0.2175,-0.2306,-0.2557,-0.2724,-0.3025,-0.3117,-0.3146,-0.3153,-0.3058,-0.291,-0.2957,-0.2833,-0.2774,-0.2835,-0.2825,-0.2989,-0.2989,-0.2989,-0.2989,-0.2988,-0.2988,-0.1758,-0.1766,-0.1791,-0.1835,-0.1878,-0.19,-0.1936,-0.2022,-0.2164,-0.242,-0.2673,-0.2925,-0.299,-0.3339,-0.3278,-0.3145,-0.2992,-0.2943,-0.2869,-0.2913,-0.2896,-0.288,-0.2866,-0.3036,-0.3036,-0.2764,-0.2762,-0.2761]},{"header":{"parameterUnit":"m.s-1","parameterCategory":2,"la1":30.2991,"la2":30.254,"lo1":-89.0895,"lo2":-89.0444,"dy":0.0017,"dx":0.0017,"nx":28,"ny":28,"refTime":"2024-09-03T09:00:00:Z","depth":"0","parameterNumber":3,"parameterNumberName":"V-component_of_CURRENTS"},"data":[0,0,0,0,0,0,0,0,0,0,0,0,0,0,0,0,0,0,0,0,0,0,0,0,0,0,0,0,0,0,0,0,0,0,0,0,0,0,0,0,0,0,0,0,0,0,0,0,0,0,0,0,0,0,0,0,0,0,-0.005,-0.0049,0,0.0031,0.0032,0.0033,0.0077,0.0077,0.0077,0.0077,0.0152,0.0154,0.0156,0,0,0,0,0,0,0,0,0,0,0,0,0,-0.0104,-0.0104,-0.005,-0.0049,-0.0048,0.0031,0.0032,0.0033,0.0077,0.0077,0.0077,0.0077,0.0152,0.0154,0.0156,0,0,0,0,0,0,0,0,0,0,0,0,0,-0.0058,-0.0104,-0.0051,-0.0017,-0.0013,0.0031,0.0032,0.0034,0.0076,0.0077,0.0077,0.0077,0.0151,0.0154,0.0157,0.0169,0,0,0.0165,0.0166,0,0,0,0,0,0,0,0,-0.0061,-0.0057,-0.0023,-0.0019,-0.0014,0.0045,0.0041,0.0079,0.0076,0.0042,0.0077,0.0077,0.0116,0.0122,0.0136,0.0173,0.0176,0.0165,0.0167,0.0168,0.0169,0,0,0,0,0,0,0,-0.0065,-0.0059,-0.0019,-0.0021,-0.0016,0.0017,0.0023,0.0049,0.0076,0.0045,0.0048,0.0059,0.0118,0.0133,0.0138,0.0177,0.0165,0.0168,0.0169,0.0171,0.0253,0.0254,0,0,0,0,0,0,-0.0077,-0.0063,-0.0021,-0.0016,-0.0037,0.0017,0.0024,0.0025,0.0076,0.0084,0.0058,0.006,0.0128,0.0134,0.0141,0.0175,0.0168,0.0171,0.0172,0.0253,0.0254,0.0254,0,0,0,0,0,0,-0.0078,-0.0074,-0.0025,-0.0036,-0.0028,0.0018,0.0018,0.0026,0.0042,0.0086,0.0094,0.0065,0.0128,0.0137,0.017,0.0177,0.0172,0.0175,0.0252,0.0253,0.0254,0.0233,0,0,0,0,0,0,-0.008,-0.0076,-0.0078,-0.0038,-0.0027,-0.0003,0.0019,0.0028,0.0048,0.0051,0.0095,0.0102,0.0129,0.0166,0.0173,0.0181,0.0177,0.0252,0.0253,0.0254,0.0233,0.0233,0.0233,0,0,0,0,0,-0.0083,-0.0093,-0.0079,-0.0073,-0.0033,-0.0004,0.0005,0.0038,0.0048,0.0052,0.0088,0.0101,0.0177,0.0168,0.0177,0.0186,0.0251,0.0252,0.0254,0.0233,0.0233,0.0233,0,0,0,0,0,0,-0.0118,-0.0088,-0.0072,-0.0072,-0.004,0.0004,0.0011,0.0034,0.0066,0.0068,0.0108,0.0118,0.015,0.0171,0.016,0.0213,0.0216,0.0219,0.0198,0.0198,0.0198,0.0187,0.0179,0,0,0,0,0,-0.0127,-0.0127,-0.0087,-0.0086,-0.0074,-0.0032,-0.0015,0.0007,0.0041,0.0055,0.0089,0.0125,0.0162,0.0181,0.0211,0.0239,0.0259,0.0251,0.0251,0.0251,0.0248,0.0285,0.0288,0.0258,0.0258,0.0258,0,0,-0.014,-0.0123,-0.0122,-0.0093,-0.0067,-0.0051,-0.0022,-0.0003,0.0017,0.0058,0.009,0.0124,0.0168,0.0203,0.0219,0.0221,0.027,0.0252,0.0252,0.0249,0.0286,0.0289,0.0292,0.0259,0.0259,0.0259,0,0,-0.0168,-0.0151,-0.016,-0.0136,-0.0101,-0.0069,-0.0066,-0.0023,0.0001,0.0037,0.0074,0.0115,0.0163,0.0204,0.0229,0.0247,0.0267,0.0253,0.0247,0.0283,0.0286,0.0288,0.0317,0.0322,0.0255,0.0255,0.0255,0,-0.0185,-0.0187,-0.0156,-0.0154,-0.0134,-0.0082,-0.0078,-0.0043,0.0009,0.0031,0.0041,0.0129,0.0166,0.022,0.023,0.0247,0.0264,0.0243,0.0282,0.0285,0.0288,0.0317,0.0323,0.0255,0.0255,0.0255,0.0255,0,-0.0216,-0.0211,-0.0214,-0.019,-0.0166,-0.0155,-0.0101,-0.0073,-0.0036,0.0004,0.0059,0.0117,0.0169,0.0191,0.0218,0.0261,0.0266,0.0275,0.0279,0.0289,0.032,0.0326,0.0253,0.0254,0.0254,0.0254,0,0,-0.0268,-0.0243,-0.0242,-0.0239,-0.0185,-0.0174,-0.0132,-0.0082,-0.0061,0.0002,0.0035,0.0113,0.0145,0.0176,0.022,0.0258,0.0299,0.0272,0.0274,0.0293,0.0372,0.0441,0.0455,0.0311,0.0312,0.0313,0.0384,0,-0.0299,-0.0315,-0.028,-0.0278,-0.0279,-0.0214,-0.0182,-0.0128,-0.0072,-0.0026,0.0052,0.0097,0.0141,0.0162,0.0212,0.028,0.0315,0.0279,0.0364,0.0367,0.0422,0.0465,0.0534,0.0609,0.0391,0.0392,0.0392,0,-0.0337,-0.0342,-0.0355,-0.0329,-0.0323,-0.0308,-0.0251,-0.0216,-0.0126,-0.0084,-0.0013,0.0049,0.0134,0.0154,0.028,0.0253,0.0306,0.0355,0.0359,0.0436,0.045,0.0565,0.063,0.0823,0.0403,0.0402,0.0401,0,-0.0399,-0.0392,-0.0407,-0.0398,-0.0357,-0.0348,-0.032,-0.024,-0.0218,-0.0124,-0.0097,0.0018,0.0069,0.0162,0.029,0.0277,0.0419,0.0414,0.0525,0.053,0.0613,0.0624,0.0871,0.0483,0.0483,0.0483,0.0483,0,-0.0445,-0.0457,-0.0444,-0.0454,-0.0471,-0.0417,-0.0413,-0.0361,-0.0297,-0.0272,-0.0142,-0.0096,0.007,0.0182,0.0281,0.0445,0.0418,0.0538,0.0562,0.0609,0.0618,0.0808,0.0871,0.0485,0.0485,0.0484,0.0484,0,-0.0506,-0.0493,-0.0521,-0.0507,-0.0503,-0.0522,-0.0497,-0.0502,-0.0412,-0.0375,-0.035,-0.0183,-0.0012,0.0164,0.0333,0.0438,0.069,0.0628,0.0676,0.0706,0.0994,0.1051,0.1277,0.1323,0.0767,0.0769,0.0771,0,-0.0538,-0.0558,-0.0581,-0.0614,-0.0612,-0.0627,-0.0644,-0.0576,-0.0572,-0.0429,-0.0424,-0.0233,-0.0084,0.0227,0.0473,0.0701,0.0789,0.086,0.0858,0.1046,0.1127,0.1153,0.1174,0.0954,0.0958,0.096,0.0962,0,-0.0601,-0.0612,-0.0641,-0.0718,-0.0758,-0.0799,-0.0806,-0.0817,-0.0724,-0.0661,-0.0537,-0.0395,-0.0007,0.0346,0.0682,0.0793,0.1014,0.0922,0.1112,0.1304,0.1353,0.1396,0.0861,0.0986,0.0984,0.0982,0.0981,0.098,-0.0652,-0.0702,-0.0757,-0.0833,-0.0897,-0.0972,-0.1011,-0.0995,-0.0981,-0.0857,-0.0649,-0.0381,0.0241,0.0761,0.0911,0.1322,0.1218,0.142,0.1472,0.1481,0.1548,0.1069,0.1226,0.1225,0.1224,0.1223,0.1223,0,-0.0717,-0.0783,-0.0869,-0.0973,-0.1087,-0.1077,-0.1127,-0.1156,-0.1153,-0.0926,-0.0738,-0.0014,0.0566,0.1083,0.1733,0.1902,0.1867,0.1958,0.2026,0.2013,0.1609,0.1643,0.1904,0.1904,0.1904,0.1904,0.1904,0.1903,-0.0757,-0.086,-0.0919,-0.113,-0.1207,-0.1333,-0.137,-0.1379,-0.1246,-0.0899,-0.0473,-0.0073,0.0789,0.1952,0.2506,0.2477,0.2569,0.2542,0.2564,0.233,0.2284,0.2239,0.2292,0.2685,0.2686,0.2946,0.295,0.2952]}],[{"header":{"parameterUnit":"m.s-1","parameterCategory":2,"la1":30.2991,"la2":30.254,"lo1":-89.0895,"lo2":-89.0444,"dy":0.0017,"dx":0.0017,"nx":28,"ny":28,"refTime":"2024-09-03T09:00:00:Z","depth":"2","parameterNumber":2,"parameterNumberName":"U-component_of_CURRENTS"},"data":[0,0,0,0,0,0,0,0,0,0,0,0,0,0,0,0,0,0,0,0,0,0,0,0,0,0,0,0,0,0,0,0,0,0,0,0,0,0,0,0,0,0,0,0,0,0,0,0,0,0,0,0,0,0,0,0,0,0,-0.1793,-0.1793,0,-0.1797,-0.1797,-0.1797,-0.1761,-0.176,-0.176,-0.1759,-0.1707,-0.1706,-0.1706,0,0,0,0,0,0,0,0,0,0,0,0,0,-0.1732,-0.1734,-0.1793,-0.1793,-0.1794,-0.1797,-0.1797,-0.1797,-0.1761,-0.176,-0.1759,-0.1759,-0.1707,-0.1706,-0.1705,0,0,0,0,0,0,0,0,0,0,0,0,0,-0.1746,-0.1734,-0.1793,-0.1779,-0.1778,-0.1797,-0.1797,-0.1797,-0.1761,-0.176,-0.1759,-0.1758,-0.1708,-0.1706,-0.1705,-0.1718,0,0,-0.1702,-0.1701,0,0,0,0,0,0,0,0,-0.1746,-0.1748,-0.1781,-0.178,-0.1779,-0.1781,-0.1757,-0.1769,-0.1762,-0.1764,-0.1759,-0.1758,-0.173,-0.1727,-0.1725,-0.1715,-0.1713,-0.1702,-0.1701,-0.17,-0.17,0,0,0,0,0,0,0,-0.1745,-0.1748,-0.1791,-0.1781,-0.1781,-0.1766,-0.1766,-0.1759,-0.1748,-0.1764,-0.1762,-0.1769,-0.1728,-0.1726,-0.1724,-0.1712,-0.1702,-0.1701,-0.17,-0.17,-0.1709,-0.171,0,0,0,0,0,0,-0.1754,-0.1747,-0.1791,-0.1791,-0.1764,-0.1768,-0.1768,-0.1778,-0.175,-0.1746,-0.1769,-0.1767,-0.1729,-0.1725,-0.1722,-0.1736,-0.17,-0.1699,-0.1699,-0.1708,-0.1709,-0.171,0,0,0,0,0,0,-0.1753,-0.1758,-0.1791,-0.1772,-0.1775,-0.1771,-0.1782,-0.1779,-0.1777,-0.1755,-0.1749,-0.1771,-0.1728,-0.1723,-0.1722,-0.1733,-0.1699,-0.1698,-0.1707,-0.1708,-0.171,-0.1764,0,0,0,0,0,0,-0.1751,-0.1758,-0.1766,-0.1773,-0.1777,-0.1811,-0.1783,-0.178,-0.1785,-0.1781,-0.1755,-0.1749,-0.1727,-0.1724,-0.1721,-0.1731,-0.1697,-0.1706,-0.1708,-0.1709,-0.1761,-0.1767,-0.1772,0,0,0,0,0,-0.1749,-0.1769,-0.1767,-0.1772,-0.179,-0.1813,-0.1813,-0.1803,-0.1786,-0.1795,-0.1775,-0.175,-0.1732,-0.1724,-0.172,-0.173,-0.1705,-0.1707,-0.1709,-0.1758,-0.1766,-0.1772,0,0,0,0,0,0,-0.1748,-0.1768,-0.1765,-0.179,-0.1804,-0.1808,-0.1817,-0.181,-0.1802,-0.1793,-0.1764,-0.1758,-0.176,-0.1742,-0.1734,-0.1739,-0.1714,-0.1715,-0.1752,-0.1759,-0.1765,-0.176,-0.1696,0,0,0,0,0,-0.1754,-0.1771,-0.1788,-0.1808,-0.1818,-0.1817,-0.1824,-0.182,-0.1817,-0.1812,-0.1795,-0.1776,-0.1767,-0.1761,-0.175,-0.1756,-0.1754,-0.176,-0.1766,-0.1771,-0.1766,-0.1766,-0.1771,-0.1717,-0.1717,-0.1717,0,0,-0.1758,-0.1772,-0.178,-0.1808,-0.1815,-0.1839,-0.1818,-0.1835,-0.1845,-0.1808,-0.1812,-0.1797,-0.1774,-0.1779,-0.1778,-0.1764,-0.1795,-0.1774,-0.1778,-0.177,-0.1769,-0.1774,-0.1778,-0.1719,-0.1718,-0.1718,0,0,-0.1782,-0.179,-0.1814,-0.183,-0.1852,-0.1855,-0.1864,-0.1873,-0.1867,-0.1878,-0.1849,-0.1841,-0.1834,-0.1816,-0.1806,-0.1838,-0.1826,-0.1839,-0.1861,-0.1862,-0.1866,-0.187,-0.1917,-0.1924,-0.184,-0.184,-0.184,0,-0.1786,-0.1816,-0.1825,-0.1855,-0.1867,-0.1866,-0.1892,-0.1895,-0.1899,-0.1898,-0.1886,-0.187,-0.1849,-0.1846,-0.1854,-0.1849,-0.1864,-0.1837,-0.1869,-0.1872,-0.1875,-0.1922,-0.1929,-0.1843,-0.1843,-0.1842,-0.1842,0,-0.1829,-0.1851,-0.1868,-0.1901,-0.1919,-0.1939,-0.1951,-0.196,-0.1952,-0.195,-0.195,-0.1925,-0.1912,-0.1909,-0.1889,-0.1897,-0.191,-0.1878,-0.1851,-0.1883,-0.1931,-0.1938,-0.1847,-0.1846,-0.1845,-0.1845,0,0,-0.1834,-0.1886,-0.189,-0.1909,-0.1939,-0.1958,-0.1981,-0.1998,-0.2016,-0.2005,-0.2021,-0.1992,-0.1974,-0.1962,-0.1937,-0.1932,-0.1974,-0.1915,-0.1914,-0.1962,-0.2017,-0.2089,-0.2103,-0.1947,-0.1948,-0.1948,-0.206,0,-0.1858,-0.1911,-0.1933,-0.1976,-0.1999,-0.2009,-0.2036,-0.205,-0.2057,-0.2077,-0.2041,-0.2048,-0.1997,-0.1998,-0.1982,-0.1975,-0.1986,-0.1949,-0.1978,-0.198,-0.2038,-0.211,-0.1888,-0.1973,-0.2066,-0.2067,-0.2068,0,-0.1884,-0.1915,-0.1957,-0.2007,-0.202,-0.2044,-0.2079,-0.2104,-0.2127,-0.2135,-0.2126,-0.2115,-0.2105,-0.2058,-0.2055,-0.2037,-0.203,-0.2022,-0.2026,-0.207,-0.2062,-0.1947,-0.1981,-0.2078,-0.2077,-0.2076,-0.2076,0,-0.1866,-0.1928,-0.1956,-0.1971,-0.2032,-0.2046,-0.2072,-0.2109,-0.2143,-0.2166,-0.2205,-0.2181,-0.2192,-0.2159,-0.2145,-0.2104,-0.2164,-0.2104,-0.2168,-0.2175,-0.198,-0.197,-0.2106,-0.2105,-0.2105,-0.2105,-0.2105,0,-0.1871,-0.1896,-0.1946,-0.1962,-0.2005,-0.2041,-0.209,-0.2118,-0.2174,-0.2238,-0.2223,-0.2275,-0.2215,-0.2244,-0.2198,-0.2233,-0.2209,-0.2198,-0.2208,-0.2001,-0.1992,-0.2057,-0.2049,-0.2109,-0.2108,-0.2107,-0.2107,0,-0.1846,-0.188,-0.1919,-0.1976,-0.1996,-0.202,-0.2103,-0.2152,-0.2202,-0.229,-0.2305,-0.236,-0.2408,-0.2383,-0.2369,-0.2335,-0.2335,-0.2348,-0.2146,-0.2132,-0.2334,-0.2328,-0.2434,-0.2438,-0.244,-0.2443,-0.2445,0,-0.184,-0.1851,-0.1916,-0.1945,-0.1968,-0.2016,-0.2067,-0.2141,-0.2212,-0.235,-0.2406,-0.2488,-0.2559,-0.26,-0.2508,-0.2487,-0.2464,-0.2304,-0.2177,-0.2369,-0.2368,-0.2357,-0.2348,-0.1947,-0.1944,-0.1943,-0.1941,0,-0.1815,-0.1831,-0.186,-0.192,-0.1969,-0.2043,-0.2123,-0.2186,-0.2303,-0.2401,-0.2558,-0.2628,-0.2673,-0.2559,-0.2533,-0.2459,-0.2287,-0.2277,-0.2498,-0.1926,-0.1925,-0.192,-0.1922,-0.1925,-0.1927,-0.1928,-0.1929,-0.193,-0.1781,-0.1793,-0.1827,-0.1881,-0.1952,-0.2043,-0.2063,-0.2172,-0.2283,-0.2356,-0.2556,-0.256,-0.2543,-0.2395,-0.2315,-0.2191,-0.232,-0.2162,-0.2159,-0.216,-0.2112,-0.2119,-0.2148,-0.2151,-0.2153,-0.2155,-0.2157,0,-0.1713,-0.1748,-0.1794,-0.1851,-0.188,-0.1964,-0.208,-0.2037,-0.2105,-0.2221,-0.2318,-0.2151,-0.2142,-0.2096,-0.1905,-0.1921,-0.1787,-0.1828,-0.1617,-0.1636,-0.1653,-0.1569,-0.1467,-0.1465,-0.1463,-0.1461,0,0,-0.1677,-0.1676,-0.17,-0.173,-0.1787,-0.1766,-0.1799,-0.1766,-0.1778,-0.174,-0.1749,-0.1963,-0.2049,-0.1745,-0.1695,-0.1552,-0.1555,-0.1472,-0.2024,-0.1791,-0.1804,-0.185,-0.1747,0,0,0,0,0]},{"header":{"parameterUnit":"m.s-1","parameterCategory":2,"la1":30.2991,"la2":30.254,"lo1":-89.0895,"lo2":-89.0444,"dy":0.0017,"dx":0.0017,"nx":28,"ny":28,"refTime":"2024-09-03T09:00:00:Z","depth":"2","parameterNumber":3,"parameterNumberName":"V-component_of_CURRENTS"},"data":[0,0,0,0,0,0,0,0,0,0,0,0,0,0,0,0,0,0,0,0,0,0,0,0,0,0,0,0,0,0,0,0,0,0,0,0,0,0,0,0,0,0,0,0,0,0,0,0,0,0,0,0,0,0,0,0,0,0,-0.0072,-0.0071,0,0.0009,0.001,0.0011,0.0054,0.0054,0.0055,0.0055,0.013,0.0132,0.0134,0,0,0,0,0,0,0,0,0,0,0,0,0,-0.0126,-0.0125,-0.0072,-0.0071,-0.007,0.0009,0.001,0.0011,0.0054,0.0054,0.0055,0.0055,0.013,0.0132,0.0134,0,0,0,0,0,0,0,0,0,0,0,0,0,-0.008,-0.0125,-0.0072,-0.0038,-0.0034,0.0009,0.001,0.0011,0.0054,0.0054,0.0055,0.0055,0.0129,0.0132,0.0134,0.0147,0,0,0.0143,0.0144,0,0,0,0,0,0,0,0,-0.0083,-0.0078,-0.0044,-0.0041,-0.0036,0.0023,0.0019,0.0057,0.0054,0.002,0.0055,0.0055,0.0094,0.01,0.0113,0.015,0.0153,0.0143,0.0145,0.0146,0.0147,0,0,0,0,0,0,0,-0.0086,-0.0081,-0.0041,-0.0043,-0.0038,-0.0005,0.0001,0.0027,0.0054,0.0023,0.0026,0.0037,0.0096,0.0111,0.0115,0.0155,0.0143,0.0145,0.0147,0.0148,0.023,0.0231,0,0,0,0,0,0,-0.0098,-0.0085,-0.0043,-0.0038,-0.0058,-0.0005,0.0002,0.0003,0.0054,0.0062,0.0036,0.0038,0.0106,0.0112,0.0118,0.0152,0.0146,0.0149,0.015,0.023,0.023,0.0231,0,0,0,0,0,0,-0.01,-0.0096,-0.0047,-0.0058,-0.005,-0.0004,-0.0004,0.0004,0.002,0.0064,0.0072,0.0043,0.0106,0.0114,0.0148,0.0155,0.015,0.0152,0.0229,0.023,0.023,0.0209,0,0,0,0,0,0,-0.0102,-0.0097,-0.0099,-0.006,-0.0049,-0.0026,-0.0003,0.0006,0.0026,0.0029,0.0073,0.008,0.0107,0.0143,0.015,0.0158,0.0154,0.0228,0.0229,0.023,0.0209,0.0209,0.0209,0,0,0,0,0,-0.0104,-0.0115,-0.01,-0.0095,-0.0055,-0.0026,-0.0018,0.0016,0.0026,0.003,0.0066,0.0079,0.0154,0.0146,0.0154,0.0163,0.0228,0.0229,0.023,0.0209,0.0209,0.0209,0,0,0,0,0,0,-0.0139,-0.011,-0.0093,-0.0094,-0.0062,-0.0018,-0.0011,0.0012,0.0043,0.0046,0.0086,0.0096,0.0128,0.0148,0.0138,0.019,0.0193,0.0196,0.0174,0.0175,0.0174,0.0164,0.0157,0,0,0,0,0,-0.0148,-0.0148,-0.0109,-0.0107,-0.0096,-0.0054,-0.0037,-0.0015,0.0019,0.0033,0.0067,0.0103,0.0139,0.0158,0.0188,0.0215,0.0235,0.0227,0.0227,0.0227,0.0224,0.0261,0.0264,0.0234,0.0234,0.0234,0,0,-0.016,-0.0143,-0.0142,-0.0114,-0.0089,-0.0072,-0.0044,-0.0024,-0.0005,0.0036,0.0067,0.0101,0.0145,0.018,0.0195,0.0198,0.0246,0.0228,0.0227,0.0225,0.0263,0.0266,0.0268,0.0235,0.0235,0.0235,0,0,-0.0188,-0.0171,-0.018,-0.0157,-0.0122,-0.0091,-0.0088,-0.0045,-0.002,0.0015,0.0052,0.0092,0.0139,0.018,0.0205,0.0222,0.0242,0.0228,0.0223,0.0259,0.0261,0.0264,0.0292,0.0298,0.0231,0.023,0.023,0,-0.0205,-0.0207,-0.0176,-0.0174,-0.0155,-0.0103,-0.01,-0.0065,-0.0013,0.0008,0.0019,0.0106,0.0142,0.0196,0.0206,0.0222,0.024,0.0218,0.0258,0.0261,0.0263,0.0292,0.0298,0.023,0.023,0.023,0.023,0,-0.0236,-0.0231,-0.0234,-0.0211,-0.0187,-0.0176,-0.0123,-0.0095,-0.0058,-0.0018,0.0037,0.0094,0.0145,0.0167,0.0193,0.0236,0.0241,0.025,0.0254,0.0265,0.0295,0.0302,0.0228,0.0229,0.0229,0.0229,0,0,-0.0287,-0.0263,-0.0262,-0.0259,-0.0205,-0.0195,-0.0154,-0.0104,-0.0082,-0.0021,0.0013,0.009,0.0122,0.0153,0.0195,0.0233,0.0275,0.0247,0.025,0.0269,0.0348,0.0415,0.0429,0.0286,0.0288,0.0288,0.036,0,-0.0318,-0.0334,-0.03,-0.0298,-0.0299,-0.0235,-0.0203,-0.015,-0.0094,-0.0048,0.0029,0.0074,0.0117,0.0139,0.0188,0.0256,0.0291,0.0254,0.034,0.0343,0.0396,0.0439,0.0353,0.0416,0.0367,0.0368,0.0369,0,-0.0356,-0.0361,-0.0374,-0.0348,-0.0342,-0.0327,-0.027,-0.0236,-0.0146,-0.0105,-0.0034,0.0027,0.0112,0.0131,0.0257,0.023,0.0282,0.0332,0.0335,0.041,0.0423,0.0399,0.043,0.038,0.0379,0.0378,0.0377,0,-0.0417,-0.041,-0.0425,-0.0416,-0.0376,-0.0366,-0.0338,-0.0259,-0.0238,-0.0144,-0.0117,-0.0002,0.0048,0.0141,0.0267,0.0255,0.0396,0.0391,0.05,0.0504,0.0456,0.0456,0.0461,0.046,0.046,0.046,0.046,0,-0.0462,-0.0473,-0.0461,-0.0471,-0.0487,-0.0434,-0.043,-0.0377,-0.0314,-0.0289,-0.016,-0.0115,0.005,0.0161,0.026,0.0421,0.0395,0.0512,0.0537,0.0449,0.0447,0.0432,0.0428,0.0463,0.0462,0.0462,0.0461,0,-0.0522,-0.0509,-0.0537,-0.0523,-0.0519,-0.0537,-0.0512,-0.0517,-0.0428,-0.0391,-0.0366,-0.0201,-0.0031,0.0143,0.031,0.0415,0.0552,0.0602,0.0496,0.0509,0.0631,0.0625,0.0732,0.0736,0.0738,0.074,0.0742,0,-0.0553,-0.0574,-0.0596,-0.0628,-0.0626,-0.0641,-0.0658,-0.059,-0.0586,-0.0445,-0.044,-0.0251,-0.0107,0.0201,0.0408,0.0623,0.0619,0.067,0.0648,0.0651,0.0663,0.0653,0.0643,0.0563,0.0563,0.0563,0.0563,0,-0.0616,-0.0626,-0.0655,-0.0731,-0.0771,-0.0811,-0.0818,-0.0828,-0.0736,-0.0676,-0.0554,-0.0417,-0.0069,0.0182,0.05,0.0598,0.0642,0.0686,0.0712,0.0526,0.0502,0.0511,0.0504,0.0565,0.0565,0.0565,0.0565,0.0565,-0.0666,-0.0715,-0.0769,-0.0844,-0.0907,-0.0982,-0.102,-0.1004,-0.0992,-0.0884,-0.0691,-0.047,-0.0141,0.0286,0.0513,0.0707,0.0711,0.0729,0.0723,0.0718,0.0704,0.0689,0.0783,0.0784,0.0785,0.0786,0.0786,0,-0.0729,-0.0794,-0.0879,-0.0983,-0.1091,-0.1085,-0.1135,-0.1152,-0.1149,-0.0999,-0.084,-0.0494,-0.0141,0.0196,0.0511,0.0737,0.0677,0.0752,0.0628,0.0625,0.0622,0.0599,0.0653,0.0653,0.0654,0.0654,0,0,-0.0768,-0.0868,-0.0927,-0.113,-0.1208,-0.1322,-0.1359,-0.1353,-0.1269,-0.115,-0.0968,-0.0645,-0.0181,0.0027,0.0314,0.0484,0.0472,0.0474,0.0549,0.0358,0.0352,0.0574,0.0533,0,0,0,0,0]}],[{"header":{"parameterUnit":"m.s-1","parameterCategory":2,"la1":30.2991,"la2":30.254,"lo1":-89.0895,"lo2":-89.0444,"dy":0.0017,"dx":0.0017,"nx":28,"ny":28,"refTime":"2024-09-03T09:00:00:Z","depth":"4","parameterNumber":2,"parameterNumberName":"U-component_of_CURRENTS"},"data":[0,0,0,0,0,0,0,0,0,0,0,0,0,0,0,0,0,0,0,0,0,0,0,0,0,0,0,0,0,0,0,0,0,0,0,0,0,0,0,0,0,0,0,0,0,0,0,0,0,0,0,0,0,0,0,0,0,0,-0.0976,-0.0977,0,-0.1015,-0.1015,-0.1015,-0.1022,-0.1022,-0.1022,-0.1022,-0.1035,-0.1036,-0.1036,0,0,0,0,0,0,0,0,0,0,0,0,0,-0.0905,-0.0906,-0.0976,-0.0977,-0.0977,-0.1014,-0.1015,-0.1015,-0.1022,-0.1022,-0.1022,-0.1022,-0.1035,-0.1036,-0.1036,0,0,0,0,0,0,0,0,0,0,0,0,0,-0.0937,-0.0907,-0.0976,-0.0987,-0.0988,-0.1014,-0.1015,-0.1015,-0.1022,-0.1022,-0.1022,-0.1022,-0.1035,-0.1036,-0.1036,-0.1045,0,0,-0.1039,-0.1039,0,0,0,0,0,0,0,0,-0.0935,-0.0939,-0.0985,-0.0986,-0.0988,-0.1015,-0.0995,-0.1025,-0.1022,-0.1007,-0.1022,-0.1022,-0.1028,-0.1029,-0.1034,-0.1045,-0.1046,-0.1039,-0.1039,-0.1039,-0.104,0,0,0,0,0,0,0,-0.0933,-0.0938,-0.0989,-0.0985,-0.0987,-0.0989,-0.0993,-0.1,-0.1016,-0.1009,-0.101,-0.1017,-0.1028,-0.1033,-0.1035,-0.1046,-0.1039,-0.1039,-0.104,-0.104,-0.11,-0.1101,0,0,0,0,0,0,-0.0933,-0.0936,-0.0988,-0.0991,-0.0963,-0.099,-0.0995,-0.1005,-0.1017,-0.1019,-0.1017,-0.1018,-0.1032,-0.1034,-0.1035,-0.1085,-0.1039,-0.104,-0.104,-0.1099,-0.1101,-0.1102,0,0,0,0,0,0,-0.0931,-0.0937,-0.0987,-0.0965,-0.0972,-0.0992,-0.1003,-0.1006,-0.1029,-0.1024,-0.1025,-0.104,-0.1032,-0.1034,-0.1061,-0.1084,-0.104,-0.1041,-0.1098,-0.11,-0.1101,-0.1158,0,0,0,0,0,0,-0.0929,-0.0937,-0.0953,-0.0966,-0.0973,-0.1017,-0.1004,-0.1007,-0.1034,-0.1035,-0.1044,-0.1043,-0.1032,-0.106,-0.1062,-0.1084,-0.1042,-0.1096,-0.1099,-0.1101,-0.1155,-0.1162,-0.1168,0,0,0,0,0,-0.0927,-0.0949,-0.0954,-0.0961,-0.0992,-0.1019,-0.1023,-0.1034,-0.1035,-0.1053,-0.106,-0.1044,-0.1075,-0.1062,-0.1063,-0.1086,-0.1095,-0.1098,-0.11,-0.1152,-0.1161,-0.1168,0,0,0,0,0,0,-0.0929,-0.0953,-0.0958,-0.0987,-0.1008,-0.1021,-0.1042,-0.1049,-0.1068,-0.1073,-0.1063,-0.1064,-0.1093,-0.1085,-0.1071,-0.111,-0.1081,-0.1084,-0.112,-0.1128,-0.1134,-0.1133,-0.1042,0,0,0,0,0,-0.0937,-0.096,-0.098,-0.1006,-0.1019,-0.1034,-0.105,-0.1059,-0.1074,-0.1083,-0.109,-0.1096,-0.1103,-0.1113,-0.1117,-0.1144,-0.1141,-0.1158,-0.1165,-0.117,-0.1171,-0.1178,-0.1185,-0.1111,-0.111,-0.111,0,0,-0.0946,-0.0962,-0.0977,-0.1009,-0.1025,-0.1051,-0.1044,-0.1076,-0.1098,-0.1082,-0.112,-0.1121,-0.1116,-0.1142,-0.1154,-0.114,-0.1197,-0.1173,-0.1178,-0.1176,-0.1181,-0.1188,-0.1194,-0.1112,-0.1112,-0.1112,0,0,-0.097,-0.0991,-0.1016,-0.1036,-0.1068,-0.1079,-0.1093,-0.112,-0.1134,-0.117,-0.1159,-0.1176,-0.1197,-0.1193,-0.1192,-0.1238,-0.1229,-0.1245,-0.1279,-0.1286,-0.1292,-0.1297,-0.1332,-0.134,-0.1249,-0.1249,-0.125,0,-0.098,-0.101,-0.1028,-0.1056,-0.1077,-0.1094,-0.1124,-0.1143,-0.1176,-0.1192,-0.1192,-0.1223,-0.1218,-0.1238,-0.1253,-0.1252,-0.1266,-0.125,-0.1294,-0.1299,-0.1303,-0.1338,-0.1345,-0.1253,-0.1252,-0.1252,-0.1252,0,-0.1013,-0.1044,-0.1063,-0.11,-0.1128,-0.1158,-0.1184,-0.1216,-0.1237,-0.1251,-0.1289,-0.1286,-0.1303,-0.1305,-0.1294,-0.1324,-0.133,-0.13,-0.1274,-0.1314,-0.1348,-0.1355,-0.1257,-0.1256,-0.1255,-0.1254,0,0,-0.101,-0.1073,-0.108,-0.1108,-0.1153,-0.1179,-0.1223,-0.1263,-0.13,-0.1324,-0.1366,-0.1371,-0.1374,-0.1373,-0.1364,-0.1369,-0.1417,-0.1355,-0.1354,-0.1389,-0.1464,-0.1413,-0.1415,-0.1399,-0.14,-0.14,-0.1487,0,-0.1029,-0.1083,-0.1113,-0.1171,-0.1199,-0.1235,-0.1277,-0.1317,-0.1352,-0.1399,-0.1397,-0.1433,-0.1399,-0.1419,-0.1418,-0.1418,-0.1434,-0.1398,-0.142,-0.1421,-0.1369,-0.142,-0.1403,-0.1492,-0.1493,-0.1495,-0.1495,0,-0.104,-0.1078,-0.1132,-0.1208,-0.1227,-0.1267,-0.1341,-0.1382,-0.144,-0.147,-0.1496,-0.1505,-0.1526,-0.1488,-0.1506,-0.1489,-0.1485,-0.1477,-0.148,-0.1411,-0.1381,-0.1436,-0.1508,-0.1507,-0.1506,-0.1505,-0.1504,0,-0.1012,-0.109,-0.1135,-0.1159,-0.1244,-0.1285,-0.1334,-0.1401,-0.1449,-0.1516,-0.1565,-0.1579,-0.1611,-0.1593,-0.1585,-0.1555,-0.1608,-0.1559,-0.1512,-0.151,-0.1504,-0.1497,-0.1571,-0.1571,-0.1571,-0.157,-0.157,0,-0.1001,-0.1044,-0.1131,-0.1156,-0.1228,-0.1286,-0.1366,-0.1421,-0.1502,-0.1569,-0.1598,-0.1647,-0.1639,-0.1667,-0.163,-0.1607,-0.1647,-0.1532,-0.1525,-0.1531,-0.1526,-0.1511,-0.1503,-0.1574,-0.1573,-0.1572,-0.1572,0,-0.0959,-0.1013,-0.1076,-0.1176,-0.1216,-0.1265,-0.1387,-0.144,-0.1527,-0.1618,-0.1647,-0.172,-0.1754,-0.175,-0.1746,-0.1676,-0.1649,-0.1631,-0.1683,-0.1676,-0.1538,-0.1533,-0.158,-0.1579,-0.1578,-0.1577,-0.1577,0,-0.094,-0.0966,-0.1082,-0.1126,-0.1176,-0.1263,-0.1325,-0.1434,-0.1497,-0.1652,-0.1692,-0.1775,-0.1807,-0.1771,-0.1757,-0.1713,-0.1673,-0.1664,-0.155,-0.1549,-0.1538,-0.1534,-0.1529,-0.1575,-0.1575,-0.1574,-0.1574,0,-0.0903,-0.0949,-0.1001,-0.1086,-0.1159,-0.1246,-0.1347,-0.1387,-0.1522,-0.1626,-0.1704,-0.1718,-0.1768,-0.1738,-0.1733,-0.1682,-0.1664,-0.1652,-0.1652,-0.1544,-0.1543,-0.1532,-0.1529,-0.1571,-0.1571,-0.1571,-0.1572,0,-0.0872,-0.0896,-0.0961,-0.1031,-0.1122,-0.1191,-0.1259,-0.1349,-0.1425,-0.1601,-0.1628,-0.1703,-0.1781,-0.1727,-0.1714,-0.1675,-0.1619,-0.154,-0.1544,-0.1548,-0.1487,-0.1478,-0.1493,0,0,0,0,0,-0.0833,-0.0848,-0.0905,-0.0968,-0.1055,-0.1105,-0.1257,-0.1326,-0.1467,-0.1501,-0.1563,-0.1604,-0.1605,-0.1631,-0.1572,-0.1659,-0.1601,-0.1583,-0.1508,-0.1551,-0.1555,-0.1481,0,0,0,0,0,0,-0.0802,-0.0846,-0.087,-0.0896,-0.092,-0.1007,-0.1095,-0.1199,-0.1231,-0.1379,-0.1383,-0.1499,-0.1505,-0.1599,-0.1528,-0.1536,-0.1459,-0.1634,-0.163,-0.1549,-0.1553,-0.1556,-0.1481,0,0,0,0,0]},{"header":{"parameterUnit":"m.s-1","parameterCategory":2,"la1":30.2991,"la2":30.254,"lo1":-89.0895,"lo2":-89.0444,"dy":0.0017,"dx":0.0017,"nx":28,"ny":28,"refTime":"2024-09-03T09:00:00:Z","depth":"4","parameterNumber":3,"parameterNumberName":"V-component_of_CURRENTS"},"data":[0,0,0,0,0,0,0,0,0,0,0,0,0,0,0,0,0,0,0,0,0,0,0,0,0,0,0,0,0,0,0,0,0,0,0,0,0,0,0,0,0,0,0,0,0,0,0,0,0,0,0,0,0,0,0,0,0,0,-0.0208,-0.0207,0,-0.0148,-0.0147,-0.0147,-0.0117,-0.0117,-0.0117,-0.0117,-0.0049,-0.0048,-0.0046,0,0,0,0,0,0,0,0,0,0,0,0,0,-0.025,-0.025,-0.0208,-0.0207,-0.0206,-0.0148,-0.0147,-0.0146,-0.0117,-0.0117,-0.0117,-0.0117,-0.005,-0.0048,-0.0046,0,0,0,0,0,0,0,0,0,0,0,0,0,-0.0216,-0.025,-0.0208,-0.0184,-0.0182,-0.0148,-0.0147,-0.0146,-0.0117,-0.0117,-0.0117,-0.0117,-0.0051,-0.0048,-0.0045,-0.003,0,0,-0.0037,-0.0036,0,0,0,0,0,0,0,0,-0.0218,-0.0214,-0.0189,-0.0186,-0.0183,-0.0139,-0.0137,-0.0107,-0.0117,-0.0142,-0.0117,-0.0117,-0.0079,-0.0074,-0.0063,-0.0027,-0.0024,-0.0037,-0.0036,-0.0034,-0.0034,0,0,0,0,0,0,0,-0.022,-0.0216,-0.0185,-0.0188,-0.0184,-0.016,-0.0156,-0.0131,-0.0111,-0.014,-0.0137,-0.013,-0.0077,-0.0066,-0.0061,-0.0023,-0.0037,-0.0035,-0.0033,-0.0032,0.0035,0.0035,0,0,0,0,0,0,-0.0229,-0.0219,-0.0187,-0.0183,-0.02,-0.016,-0.0155,-0.0154,-0.0112,-0.0105,-0.013,-0.0129,-0.007,-0.0064,-0.0059,-0.0035,-0.0034,-0.0032,-0.003,0.0035,0.0035,0.0035,0,0,0,0,0,0,-0.0231,-0.0227,-0.0189,-0.0199,-0.0192,-0.016,-0.0158,-0.0153,-0.014,-0.0104,-0.0098,-0.0124,-0.007,-0.0063,-0.0034,-0.0032,-0.0031,-0.0028,0.0034,0.0035,0.0035,0.0011,0,0,0,0,0,0,-0.0232,-0.0228,-0.023,-0.02,-0.0192,-0.0174,-0.0158,-0.0151,-0.0136,-0.0133,-0.0097,-0.009,-0.0069,-0.0038,-0.0031,-0.0029,-0.0026,0.0034,0.0035,0.0035,0.0011,0.001,0.0009,0,0,0,0,0,-0.0234,-0.0239,-0.023,-0.0226,-0.0196,-0.0174,-0.0168,-0.0145,-0.0136,-0.0133,-0.0104,-0.0092,-0.0031,-0.0035,-0.0027,-0.0024,0.0034,0.0035,0.0035,0.0012,0.001,0.0009,0,0,0,0,0,0,-0.0258,-0.0236,-0.0226,-0.0224,-0.0202,-0.0169,-0.0164,-0.0146,-0.0121,-0.0119,-0.0085,-0.0077,-0.0053,-0.0034,-0.004,-0.0004,0.0002,0.0004,-0.0018,-0.0019,-0.002,-0.002,-0.0024,0,0,0,0,0,-0.0265,-0.0263,-0.0235,-0.0233,-0.0225,-0.0194,-0.0182,-0.0167,-0.014,-0.0129,-0.0101,-0.0072,-0.0045,-0.0029,-0.0006,0.0018,0.0042,0.0024,0.0023,0.0022,0.0027,0.0068,0.0071,0.0037,0.0037,0.0037,0,0,-0.0273,-0.026,-0.0259,-0.0238,-0.022,-0.0211,-0.0187,-0.0173,-0.0162,-0.0125,-0.0103,-0.0076,-0.0041,-0.0017,-0.0004,0.0001,0.0043,0.0023,0.0021,0.0028,0.0069,0.0073,0.0076,0.0037,0.0037,0.0037,0,0,-0.0292,-0.0278,-0.0285,-0.027,-0.0247,-0.0225,-0.0222,-0.0191,-0.0173,-0.0148,-0.0119,-0.0087,-0.0051,-0.0019,-0.0,0.0009,0.0033,0.001,0.001,0.0049,0.0053,0.0056,0.0082,0.0088,0.0013,0.0013,0.0013,0,-0.0304,-0.0305,-0.0282,-0.0283,-0.027,-0.0234,-0.0233,-0.021,-0.0172,-0.0151,-0.0147,-0.0075,-0.005,-0.0005,-0.0004,0.0007,0.0029,0.0011,0.0048,0.0052,0.0056,0.0082,0.0089,0.0012,0.0012,0.0012,0.0012,0,-0.0326,-0.0325,-0.0327,-0.0314,-0.0299,-0.0291,-0.0257,-0.0236,-0.021,-0.0179,-0.0133,-0.0091,-0.0045,-0.0035,-0.0016,0.0024,0.003,0.0038,0.005,0.0058,0.0085,0.0092,0.0011,0.0011,0.0011,0.0012,0,0,-0.0356,-0.0346,-0.0346,-0.0345,-0.0313,-0.0304,-0.028,-0.0242,-0.0221,-0.0178,-0.0144,-0.0092,-0.006,-0.0036,-0.0004,0.0032,0.0071,0.0044,0.0047,0.0067,0.015,0.0148,0.0156,0.0086,0.0087,0.0088,0.0155,0,-0.0378,-0.0393,-0.0374,-0.0376,-0.0376,-0.0334,-0.0313,-0.0273,-0.0231,-0.019,-0.0129,-0.0091,-0.0063,-0.0043,0.0002,0.0057,0.0091,0.0052,0.0143,0.0145,0.014,0.0165,0.0093,0.0161,0.0163,0.0164,0.0165,0,-0.0404,-0.0408,-0.0422,-0.0403,-0.0399,-0.0394,-0.0347,-0.0324,-0.0253,-0.0219,-0.0157,-0.0109,-0.0037,-0.0027,0.0084,0.0057,0.0101,0.014,0.0144,0.0157,0.0157,0.0155,0.0179,0.0178,0.0177,0.0176,0.0175,0,-0.0436,-0.0437,-0.045,-0.0446,-0.0422,-0.0415,-0.0396,-0.0335,-0.0318,-0.0238,-0.0215,-0.0114,-0.0073,0.001,0.0102,0.0093,0.0214,0.0213,0.0252,0.0252,0.0243,0.0239,0.0282,0.0282,0.0281,0.0281,0.0281,0,-0.046,-0.0471,-0.0472,-0.048,-0.049,-0.0456,-0.0451,-0.0409,-0.0361,-0.0342,-0.0239,-0.0201,-0.0063,0.0025,0.0104,0.0209,0.0221,0.0261,0.0276,0.0229,0.0223,0.0248,0.0243,0.0284,0.0283,0.0283,0.0282,0,-0.049,-0.0491,-0.0513,-0.0509,-0.0509,-0.052,-0.051,-0.0511,-0.0445,-0.0418,-0.0397,-0.0265,-0.0138,-0.0003,0.0138,0.0203,0.0304,0.033,0.0271,0.0279,0.0312,0.0305,0.0386,0.0387,0.0387,0.0387,0.0388,0,-0.0505,-0.0521,-0.0547,-0.0574,-0.0578,-0.059,-0.0606,-0.0562,-0.056,-0.046,-0.0455,-0.0317,-0.0219,-0.0015,0.0132,0.0305,0.0317,0.0369,0.0346,0.032,0.0326,0.0318,0.0311,0.0389,0.0389,0.0389,0.0389,0,-0.0533,-0.055,-0.0571,-0.0628,-0.0665,-0.0702,-0.0714,-0.0717,-0.066,-0.0603,-0.0502,-0.0362,-0.0213,-0.0029,0.0116,0.0232,0.0343,0.0374,0.0374,0.0353,0.0325,0.0328,0.032,0.0391,0.0391,0.039,0.039,0,-0.0557,-0.0587,-0.0629,-0.0677,-0.0743,-0.0801,-0.0792,-0.0777,-0.0759,-0.0635,-0.0603,-0.0409,-0.0281,-0.0067,0.0062,0.0193,0.0215,0.0238,0.0245,0.0244,0.0188,0.0131,0.0159,0,0,0,0,0,-0.0574,-0.0617,-0.0673,-0.074,-0.0816,-0.0848,-0.0866,-0.0845,-0.0782,-0.0732,-0.0663,-0.0518,-0.0275,-0.0153,-0.0028,0.0055,0.0225,0.0205,0.025,0.0401,0.0399,0.0358,0,0,0,0,0,0,-0.059,-0.0646,-0.0679,-0.0795,-0.0851,-0.0933,-0.095,-0.0903,-0.0854,-0.0759,-0.0631,-0.0509,-0.0277,-0.036,-0.0035,0.0013,0.0054,0.0339,0.0341,0.0402,0.04,0.0399,0.0356,0,0,0,0,0]}]]